{"data":{"norad_id":85422,"intl_designator":"","name":"UNKNOWN","alt_names":[],"object_type":"UNKNOWN","status":"UNKNOWN","operator":null,"country":null,"launch_date":null,"launch_site_code":null,"launch_vehicle":null,"mission":null,"orbit_class":"UNKNOWN","rcs_meters":null,"size_class":null,"mass_kg":null,"dimensions":null,"purposes":[],"wikipedia_slug":null,"has_3d_model":false,"image_url":null,"decayed_at":null,"tle_current":{"epoch":"2026-05-17T09:54:19.661184Z","epoch_age_seconds":724514,"freshness":"AGED","line1":"1 85422U          26137.41272756  .00001653  00000+0  83451-3 0  9992","line2":"2 85422  98.8428 189.3876 0008568  68.5268 291.6820 14.17632266    13","mean_motion":14.17632266,"eccentricity":0.0008568,"inclination_deg":98.8428,"raan_deg":189.3876,"arg_perigee_deg":68.5268,"mean_anomaly_deg":291.682,"bstar":0.00083451,"rev_number":1,"period_min":101.57782342688,"perigee_km":827.19260170265,"apogee_km":839.55024253479,"semimajor_km":7211.5084221187,"source":"CELESTRAK","updated_at":"2026-05-25T13:38:11.433166Z"}}}